User: anonymous   Login
Location: Chervonnoye
(48.6000°N, 34.4000°E)
Time: 01:58:27
(UTC+00:00)
Language:

Cosmos 2369 Rocket - Orbit

View from above orbital plane
View from above orbital plane
View from above satellite
View from above satellite

Ground track
Ground track

The orbit data is extracted from the following two-line orbital elements,

1 26070U 00006B   21058.84781989  .00000147  00000-0  99304-4 0  9992
2 26070  71.0053 356.5691 0014290  96.7522 263.5227 14.15472027 88731
Epoch (UTC): 27 February 2021 20:20:51
Eccentricity: 0.0014290
inclination: 71.0053°
perigee height: 830 km
apogee height: 851 km
right ascension of ascending node: 356.5691°
argument of perigee: 96.7522°
revolutions per day: 14.15472027
mean anomaly at epoch: 263.5227°
orbit number at epoch: 8873

The dashed part of the orbit path shows where the satellite is in the earth's shadow,  

DLR